Bluefield, WV

8:30 PM EDT on August 18, 2019 (GMT -0400)
Mercer County

Weather History for KBLF - May, 2019

Change the Weather History Date:

Sunday, May 19, 2019

  Actual Average Record
Temperature  
Mean Temperature 72 °F 63 °F  
Max Temperature 79 °F 73 °F 89 °F (1911)
Min Temperature 64 °F 54 °F 31 °F (2002)
Degree Days  
Heating Degree Days 0 4  
Month to date heating degree days 78 100  
Since 1 July heating degree days 4851 4530  
Cooling Degree Days 7 2  
Month to date cooling degree days 27 29  
Year to date cooling degree days 32 57  
Growing Degree Days 22 (Base 50)    
Moisture  
Dew Point 60 °F    
Average Humidity 69    
Maximum Humidity 84    
Minimum Humidity 54    
Precipitation  
Precipitation 0.32 in 0.13 in 1.61 in (1981)
Month to date precipitation 4.30 2.54  
Year to date precipitation 18.00 15.05  
Snow  
Snow 0.00 in - - ()
Month to date snowfall 0.0  
Since 1 July snowfall 30.8  
Snow Depth 0.00 in    
Sea Level Pressure  
Sea Level Pressure 30.00 in    
Wind  
Wind Speed 6 mph (SW)    
Max Wind Speed 25 mph    
Max Gust Speed 34 mph    
Visibility 9 miles    
Events Rain , Thunderstorm    
T = Trace of Precipitation, MM = Missing Value Source: NWS Daily Summary

Daily Weather History Graph

Daily Weather History Graph

Search for Another Location

Airport or City:

Astronomy

May. 19, 2019 Rise Set
Actual Time 6:13 AM EDT 8:29 PM EDT
Civil Twilight 5:43 AM EDT 8:59 PM EDT
Nautical Twilight 5:07 AM EDT 9:35 PM EDT
Astronomical Twilight 4:28 AM EDT 10:15 PM EDT
Moon 9:28 PM EDT 6:56 AM EDT
Length of Visible Light 15h 15m
Length of Day
14h 16m
Full, 99% of the Moon is Illuminated
May 19
Full
May 26
Last Quarter
Jun 3
New
Jun 10
First Quarter
Jun 17
Full

Hourly Weather History & Observations

Time (EDT) Temp. Dew Point Humidity Pressure Visibility Wind Dir Wind Speed Gust Speed Precip Events Conditions
12:52 AM 66.0 °F 55.0 °F 68% 30.01 in 10.0 mi SW 5.8 mph - N/A   Overcast
1:52 AM 66.0 °F 57.0 °F 73% 30.00 in 10.0 mi South 3.5 mph - N/A   Mostly Cloudy
2:52 AM 69.1 °F 57.9 °F 68% 29.99 in 10.0 mi SW 6.9 mph - N/A   Clear
3:52 AM 68.0 °F 57.9 °F 70% 29.98 in 10.0 mi Variable 4.6 mph - N/A   Clear
4:52 AM 68.0 °F 57.9 °F 70% 29.99 in 10.0 mi SW 5.8 mph - N/A   Clear
5:52 AM 68.0 °F 57.9 °F 70% 29.98 in 10.0 mi SSW 5.8 mph - N/A   Clear
6:52 AM 68.0 °F 57.9 °F 70% 29.99 in 10.0 mi SSW 4.6 mph - N/A   Clear
7:52 AM 69.1 °F 57.9 °F 68% 30.01 in 10.0 mi Variable 5.8 mph - N/A   Clear
8:52 AM 72.0 °F 59.0 °F 64% 30.01 in 10.0 mi SW 5.8 mph - N/A   Mostly Cloudy
9:52 AM 73.0 °F 59.0 °F 61% 30.01 in 10.0 mi Variable 5.8 mph - N/A   Clear
10:52 AM 75.0 °F 59.0 °F 57% 30.01 in 10.0 mi SSW 6.9 mph - N/A   Partly Cloudy
11:52 AM 73.9 °F 59.0 °F 59% 30.00 in 10.0 mi South 8.1 mph - N/A   Scattered Clouds
12:52 PM 78.1 °F 61.0 °F 56% 29.98 in 10.0 mi SW 9.2 mph - N/A   Clear
1:22 PM 79.0 °F 59.0 °F 50% 30.07 in 10.0 mi SSW 8.1 mph 16.1 mph N/A Thunderstorm Thunderstorm
1:52 PM 70.0 °F 62.1 °F 76% 29.99 in 8.0 mi SW 4.6 mph - 0.03 in Rain Light Rain
2:00 PM 72.0 °F 62.1 °F 71% 30.08 in 10.0 mi SSW 8.1 mph - 0.00 in Thunderstorm Scattered Clouds
2:25 PM 72.0 °F 61.0 °F 68% 30.07 in 8.0 mi South 3.5 mph - 0.02 in Rain Light Rain
2:41 PM 70.0 °F 60.1 °F 71% 30.06 in 2.5 mi Calm Calm - 0.08 in Rain , Thunderstorm Light Rain
2:50 PM 68.0 °F 62.6 °F 83% 30.06 in 3.0 mi South 4.6 mph - 0.13 in Rain , Thunderstorm Light Thunderstorms and Rain
2:52 PM 68.0 °F 62.1 °F 81% 29.96 in 3.0 mi SSW 4.6 mph - 0.13 in Rain , Thunderstorm Light Thunderstorms and Rain
3:02 PM 69.1 °F 62.1 °F 78% 30.07 in 1.8 mi WSW 9.2 mph 23.0 mph 0.10 in Rain , Thunderstorm Heavy Thunderstorms and Rain
3:11 PM 66.9 °F 59.0 °F 76% 30.06 in 4.0 mi South 6.9 mph - 0.11 in Rain , Thunderstorm Light Thunderstorms and Rain
3:29 PM 68.0 °F 62.1 °F 81% 30.05 in 10.0 mi SE 3.5 mph - 0.11 in Thunderstorm Mostly Cloudy
3:41 PM 72.0 °F 63.0 °F 73% 30.05 in 10.0 mi Variable 3.5 mph - 0.11 in   Scattered Clouds
3:52 PM 73.9 °F 64.0 °F 71% 29.94 in 10.0 mi Variable 3.5 mph - 0.11 in   Partly Cloudy
4:52 PM 75.0 °F 60.1 °F 60% 29.91 in 10.0 mi South 8.1 mph - N/A   Mostly Cloudy
5:52 PM 75.0 °F 57.9 °F 55% 29.90 in 10.0 mi SSW 8.1 mph 18.4 mph 0.00 in Rain Light Rain
6:52 PM 70.0 °F 60.1 °F 71% 29.91 in 10.0 mi West 5.8 mph - 0.00 in Thunderstorm Scattered Clouds
7:06 PM 70.0 °F 61.0 °F 73% 30.01 in 10.0 mi West 4.6 mph - N/A   Partly Cloudy
7:52 PM 64.9 °F 59.0 °F 81% 29.94 in 10.0 mi SW 3.5 mph - 0.05 in   Overcast
8:52 PM 64.9 °F 59.0 °F 81% 29.95 in 10.0 mi SW 3.5 mph - N/A   Overcast
9:52 PM 66.0 °F 57.9 °F 75% 29.95 in 10.0 mi WSW 3.5 mph - N/A   Partly Cloudy
10:52 PM 66.0 °F 57.0 °F 73% 29.96 in 10.0 mi SW 6.9 mph - N/A   Mostly Cloudy
11:52 PM 66.0 °F 57.9 °F 75% 29.97 in 10.0 mi WSW 4.6 mph - N/A   Scattered Clouds